Simultaneous Nadir Overpasses (SNOs) Predictions

Prediction of SNOs between METOP-B and TERRA Satellite Orbit:

Table of predicted SNOs for the next 14.0 days since TLE Epoch: 9/23/2017
Index Date (METOP-B) Time (METOP-B) Lat,Lon (METOP-B) SZA (METOP-B ) Date (TERRA) Time (TERRA) Lat,Lon (TERRA) SZA (TERRA ) Distance(km) Time Diff (sec)
1 09/24/2017 17:23:15 81.29, -34.04 84.98 09/24/2017 17:23:59 81.29, -34.01 85.01 0.82 44
2 09/24/2017 18:13:56 -81.29, 133.38 95.00 09/24/2017 18:13:26 -81.29, 133.57 94.99 3.14 30
3 09/27/2017 12:57:38 81.29, 32.43 86.10 09/27/2017 12:58:14 81.29, 32.37 86.11 1.04 36
4 09/27/2017 13:48:19 -81.29,-160.14 93.88 09/27/2017 13:47:41 -81.29,-160.03 93.88 1.81 38
5 09/30/2017 08:32:01 81.29, 98.88 87.22 09/30/2017 08:32:29 81.29, 98.80 87.23 1.47 28
6 09/30/2017 09:22:42 -81.29, -93.68 92.75 09/30/2017 09:21:56 -81.29, -93.58 92.77 1.65 46
7 10/03/2017 04:06:23 81.29, 165.32 88.34 10/03/2017 04:06:43 81.29, 165.28 88.34 0.77 20
8 10/03/2017 04:57:04 -81.29, -27.24 91.64 10/03/2017 04:56:10 -81.29, -27.08 91.65 2.65 54
9 10/05/2017 23:40:46 81.29,-128.26 89.44 10/05/2017 23:40:58 81.30,-128.19 89.46 1.45 12




NCC Satellite Simultaneous Nadir Overpasses (SNOs) Prediction Service
